www.pogodaiklimat.ru

Погода и климат >> Архив погоды >> Алжир >> Chlef


ПОГОДА в Chlef

  • Прогноз погоды в Chlef
  • Монитор погоды в Chlef
  • Климат города

АРХИВ ПОГОДЫ в Chlef

Время (UTC), дата Ветер
(напр.,м/с)
 
Видим.   Явления Облачность Т
(С)
Тd
(С)
f
(%)
Тe
(С)
Тes
(С)
Комфортность P
(гПа)
Po
(гПа)
Тmin
(С)
Tmax
(С)
R
(мм)
R24
(мм)
S
(см)
12 12.07 ЮВ 2 15 км ясно +37.0 +10.3 20 +36 +56 опасность
солнечного
удара
1011.9 1012.0
15 12.07 С 7 15 км 3/3 900 м
[Cu med, cong Ci sp]
+36.5 +18.3 34 +40 +42 очень
душно
1009.5 1010.0
18 12.07 С 8 10 км 4/3 900 м
[Cu med, cong Ac trans]
+33.0 +15.7 35 +35 +35 душно 1008.8 1009.0 +40.0
21 12.07 штиль 0 10 км 3/3 900 м
[Sc]
+28.5 +15.5 45 +31 +31 душно 1011.0 1011.0
00 13.07 штиль 0 10 км 3/3 900 м
[Sc]
+27.0 +14.9 47 +30 +30 душно 1011.6 1012.0
03 13.07 штиль 0 10 км 3/3 900 м
[Sc]
+25.6 +14.7 51 +28 +28 жарко 1012.0 1012.0
06 13.07 ЮЗ 5 6000 м ясно +23.0 +18.3 75 +29 +29 очень
душно
1013.0 1013.0 +22.6
09 13.07 ЮЗ 6 8000 м ясно +27.0 +19.4 63 +33 +37 очень
душно
1013.4 1013.0
12 13.07 ЮЗ 6 10 км ясно +31.0 +18.9 49 +36 +44 очень
душно
1013.6 1014.0
15 13.07 ЮЗ 5 10 км ясно +34.0 +20.0 44 +40 +46 очень
душно
1012.5 1013.0
18 13.07 ЮЗ 3 10 км ясно +30.0 +19.4 53 +36 +36 очень
душно
1013.3 1013.0 +34.5
21 13.07 ЮЗ 3 10 км ясно +26.0 +19.9 69 +32 +32 очень
душно
1015.8 1016.0
00 14.07 штиль 0 10 км ясно +24.0 +19.4 75 +29 +29 душно 1016.3 1016.0
03 14.07 штиль 0 10 км ясно +21.6 +19.4 87 +27 +27 душно 1015.8 1016.0
06 14.07 штиль 0 6000 м ясно +21.0 +20.1 95 +26 +27 душно 1017.1 1017.0 +20.8
09 14.07 Ю 2 8000 м ясно +27.8 +19.8 62 +34 +47 очень
душно
1017.6 1018.0
12 14.07 штиль 0 10 км ясно +34.5 +20.2 43 +41 +69 опасность
перегрева
1016.1 1016.0
15 14.07 С 4 10 км ясно +37.8 +17.8 31 +41 +49 опасность
перегрева
1014.1 1014.0
18 14.07 СЗ 3 10 км ясно +36.4 +18.2 34 +40 +41 очень
душно
1013.5 1014.0 +38.5
21 14.07 штиль 0 10 км ясно +30.4 +18.3 48 +35 +35 очень
душно
1014.7 1015.0
00 15.07 ЮЗ 2 10 км ясно +29.0 +18.2 52 +34 +34 очень
душно
1015.1 1015.0
03 15.07 ЮЗ 2 10 км ясно +24.5 +20.3 77 +30 +30 очень
душно
1015.1 1015.0
06 15.07 штиль 0 8000 м 6/4 800 м
[Cu med, cong Ac trans]
+23.5 +18.7 74 +28 +29 душно 1015.7 1016.0 +23.1
09 15.07 Ю 2 8000 м 5/4 800 м
[Cu med, cong Ac trans]
+28.0 +18.8 57 +33 +40 очень
душно
1017.2 1017.0
12 15.07 ЮЗ 4 10 км 3/0
[Ci sp]
+33.2 +19.1 43 +38 +51 опасность
солнечного
удара
1015.1 1015.0
15 15.07 ЮЗ 6 10 км 1/0
[Ci sp]
+36.6 +16.9 31 +39 +44 очень
душно
1012.8 1013.0
18 15.07 С 4 10 км 8/5 800 м
[Cb cap Ac trans Ci sp]
+29.2 +16.2 45 +32 +33 душно 1014.0 1014.0 +37.4
21 15.07 ЮЗ 3 10 км 8/5 800 м
[Cb cap Ac trans Ci sp]
+25.8 +16.5 56 +29 +29 душно 1016.7 1017.0
00 16.07 ЮЗ 7 10 км 8/5 800 м
[Cu med, cong Ac trans Ci sp]
+24.9 +16.4 59 +28 +28 жарко 1017.0 1017.0
03 16.07 ЮЗ 4 10 км 6/4 800 м
[Cu med, cong Ac trans Ci sp]
+24.3 +17.1 64 +28 +28 душно 1017.0 1017.0
06 16.07 ЮЗ 4 10 км 6/6 800 м
[Cu med, cong Ac trans]
+23.2 +18.5 75 +29 +30 душно 1018.7 1019.0 +23.0
09 16.07 ЮЗ 7 10 км 6/5 800 м
[Cu med, cong Ac trans]
+26.0 +19.6 68 +32 +33 очень
душно
1018.4 1018.0
12 16.07 Ю 3 10 км 4/3 800 м
[Cu med, cong Ac trans]
+30.5 +21.4 58 +38 +49 очень
душно
1017.5 1018.0
15 16.07 ЮЗ 5 20 км 3/0
[Ci sp]
+33.8 +10.8 25 +33 +39 жарко 1015.9 1016.0
18 16.07 ЮЗ 3 20 км ясно +33.2 +5.9 18 +31 +32 жарко 1015.1 1015.0 +34.2
21 16.07 С 3 15 км ясно +27.2 +14.2 45 +29 +29 жарко 1015.9 1016.0
00 17.07 штиль 0 15 км ясно +23.0 +13.7 56 +26 +26 жарко 1016.0 1016.0
03 17.07 штиль 0 10 км ясно +21.0 +13.6 63 +23 +23 комфорт 1014.9 1015.0
06 17.07 штиль 0 20 км 3/3 900 м
[Cu hum]
+21.5 +14.8 66 +25 +26 комфорт 1015.4 1015.0 +20.4
09 17.07 В 3 20 км 3/3 900 м
[Cu hum]
+31.3 +13.6 34 +33 +40 жарко 1014.9 1015.0
12 17.07 СВ 4 20 км 3/3 900 м
[Cu hum]
+38.0 +9.1 17 +36 +46 очень
жарко
1013.4 1013.0
15 17.07 СВ 3 20 км 6/4 900 м
[Cu med, cong Ci sp]
+39.8 +11.6 19 +39 +45 очень
жарко
1011.0 1011.0
18 17.07 СВ 5 15 км 5/0
[Ac trans Ci sp]
+37.5 +13.3 24 +38 +38 очень
жарко
1009.7 1010.0 +41.2
21 17.07 СВ 4 15 км 4/0
[Ci sp]
+31.6 +15.0 37 +34 +34 душно 1010.6 1011.0
00 18.07 СВ 3 10 км 4/0
[Ci sp]
+29.1 +13.8 39 +31 +31 жарко 1010.1 1010.0
03 18.07 СВ 3 10 км 3/0
[Ci sp]
+27.0 +14.8 47 +30 +30 душно 1009.2 1009.0
06 18.07 З 3 10 км 3/3 800 м
[Cu hum Ci sp]
+23.8 +17.8 69 +28 +29 душно 1010.5 1011.0 +23.8
09 18.07 З 6 10 км ясно +28.5 +20.3 61 +35 +40 очень
душно
1012.0 1012.0
12 18.07 ЮЗ 7 10 км 3/0
[Ci sp]
+35.0 +15.1 30 +36 +41 очень
жарко
1011.6 1012.0
15 18.07 Ю 5 10 км ясно +37.8 +14.5 25 +39 +45 очень
душно
1011.1 1011.0
18 18.07 С 3 10 км ясно +35.0 +18.4 38 +39 +40 очень
душно
1011.6 1012.0 +38.6
21 18.07 ЮЗ 6 10 км ясно +29.9 +14.7 40 +32 +32 жарко 1013.3 1013.0
00 19.07 ЮЗ 5 10 км ясно +25.4 +18.6 66 +30 +30 душно 1014.3 1014.0
03 19.07 ЮЗ 3 10 км 1/0
[Ci sp]
+23.9 +19.1 75 +29 +29 душно 1014.5 1015.0
06 19.07 ЮЗ 2 7000 м 5/4 800 м
[Cu hum Ci sp]
+23.7 +20.4 82 +29 +30 душно 1015.4 1015.0 +23.5

 

Местоположение метеостанции Chlef (Алжир): широта 36.22 долгота 1.33 высота над уровнем моря 144 м.

В архиве по умолчанию представлена погода в Chlef за последнюю неделю. Архивные данные за месяц целиком и за предыдущие месяцы, начиная с января 2011 года, Вы можете получить, выбрав интересующий диапазон дат из раскрывающегося списка и нажав кнопку "Ввод!".


*Определитесь, кто Вы:
робот инопланетянин человек

Внимание! Время в таблицах - всемирное. Для получения местного времени необходимо прибавить поправку, которая в Chlef равна 1 ч.

Смотрите также архив погоды в соседних городах и на ближайших метеорологических станциях:

Погода в Tenes (Алжир) (31 км)
Погода в Miliana (Алжир) (81 км)
Погода в Relizane (Алжир) (89 км)
Погода в Tiaret (Алжир) (98 км)
Погода в Mostaganem Ville (Алжир) (115 км)
Погода в Medea (Алжир) (126 км)
Погода в Ksar Chellala (Алжир) (147 км)
Погода в Arzew (Алжир) (151 км)
Погода в Mascara Ghriss (Алжир) (154 км)
Погода в Alger (Алжир) (170 км)

Пояснения к столбцам:

Ветер - указаны скорость ветра в м/с - средняя за 10 мин, порывы в срок и между сроками (в фигурных скобках) и направление, откуда дует ветер: С - северный, СВ - северо-восточный, В - восточный, ЮВ - юго-восточный, Ю - южный, ЮЗ - юго-западный, З - западный, СЗ - северо-западный.
Видимость - горизонтальная дальность видимости в метрах или километрах. При видимости от 1 до 10 км при отсутствии осадков обычно наблюдается дымка, при ухудшении видимости до 1 км и менее - туман. В сухую погоду видимость может ухудшаться дымом, пылью или мглою.
Явления - указаны атмосферные явления, наблюдавшиеся в срок или в последний час перед сроком; фигурными скобками обозначены явления, наблюдавшиеся между сроками (за 1-3 часа до срока); квадратными скобками обозначены град или гололедные отложения с указанием их диаметра в мм.
Облачность - указаны через наклонную черту общая и нижняя облачность в баллах и высота нижней границы облаков в метрах; квадратными скобками обозначены формы облаков: Ci - перистые, Cs - перисто-слоистые, Cc - перисто-кучевые, Ac - высококучевые, As - высокослоистые, Sc - слоисто-кучевые, Ns - слоисто-дождевые, Cu - кучевые, Cb - кучево-дождевые. Подробнее классификацию облаков см. в Атласе облаков (PDF).
T - Температура воздуха - температура, измеренная на высоте 2 м над землей.
Td - Температура точки росы - температура, при понижении до которой содержащийся в воздухе водяной пар достигнет насыщения.
f - Относительная влажность воздуха - влажноcть воздуха, измеренная на высоте 2 м над землей.
Te - Эффективная температура - температура, которую ощущает одетый по сезону человек в тени. Характеристика душности погоды. При расчете учитывается влияние влажности воздуха и скорости ветра на теплоощущения человека.
Tes - Эффективная температура на солнце - температура, которую ощущает человек, с поправкой на солнечный нагрев. Характеристика знойности погоды. Зависит от высоты солнца над горизонтом, облачности и скорости ветра. Ночью, в пасмурную погоду, а также при ветре 12 м/с и более поправка равна нулю.
P - Атмосферное давление - приведенное к уровню моря атмосферное давление.
Po - Атмосферное давление - измеренное на уровне метеостанции атмосферное давление.
Tmin - Минимальная температура - минимум температуры воздуха на высоте 2 м над землей.
Tmax - Максимальная температура - максимум температуры воздуха на высоте 2 м над землей.
R - Количество осадков - Количество выпавших осадков за период времени, мм. При наведении курсора мыши на число - период времени, за который выпало указанное количество осадков.
R24 - Количество осадков - Количество выпавших осадков за 24 часа, мм.
S - Снежный покров - Высота снежного покрова, см. При наведении курсора мыши на число - состояние снежного покрова и степень покрытия местности в баллах.